{"data":{"norad_id":65937,"epoch":"2026-05-25T02:22:59.496672Z","epoch_age_seconds":56703,"freshness":"FRESH","line1":"1 65937U 25225AD  26145.09929973  .00009938  00000+0  34717-3 0  9995","line2":"2 65937  53.1576 170.9845 0001122  73.7729 286.3395 15.30204435 35218","mean_motion":15.30204435,"eccentricity":0.0001122,"inclination_deg":53.1576,"raan_deg":170.9845,"arg_perigee_deg":73.7729,"mean_anomaly_deg":286.3395,"bstar":0.00034717,"rev_number":3521,"period_min":94.105072960398,"perigee_km":474.43288272429,"apogee_km":475.97077195715,"semimajor_km":6853.3388273407,"source":"CELESTRAK","updated_at":"2026-05-25T13:38:21.011768Z"}}